Weather History for Trenton, NJ

Change the Weather History Date:

Sunday, August 18, 2013

  Actual Average Record
Temperature  
Mean Temperature 69 °F 74 °F  
Max Temperature 75 °F 84 °F 96 °F (2002)
Min Temperature 63 °F 64 °F 53 °F (1915)
Degree Days  
Heating Degree Days 0 0  
Month to date heating degree days 0 0  
Since 1 June heating degree days 4 24  
Since 1 July heating degree days 0 0  
Cooling Degree Days 4 9  
Month to date cooling degree days 113 176  
Year to date cooling degree days 835 753  
Since 1 June cooling degree days 745 696  
Growing Degree Days 19 (Base 50)    
Moisture  
Dew Point 60 °F    
Average Humidity 72    
Maximum Humidity 90    
Minimum Humidity 53    
Precipitation  
Precipitation 0.02 in 0.14 in 2.92 in (1932)
Month to date precipitation 3.10 2.51  
Year to date precipitation 31.52 29.39  
Sea Level Pressure  
Sea Level Pressure 30.19 in    
Wind  
Wind Speed 3 mph (North)    
Max Wind Speed 9 mph    
Max Gust Speed 15 mph    
Visibility 10 miles    
Events Rain    
T = Trace of Precipitation, MM = Missing Value Source: NWS Daily Summary

Daily Weather History Graph

Daily Weather History Graph

Search for Another Location

Airport:

Trip Planner

Search our weather history database for the weather conditions in past years. The results will help you decide how hot, cold, wet, or windy it might be!

Date:

Astronomy

Aug. 18, 2013 Rise Set
Actual Time 6:13 AM EDT 7:51 PM EDT
Civil Twilight 5:44 AM EDT 8:20 PM EDT
Nautical Twilight 5:09 AM EDT 8:55 PM EDT
Astronomical Twilight 4:32 AM EDT 9:32 PM EDT
Moon 5:56 PM EDT (8/18) 3:19 AM EDT (8/18)
Length of Visible Light 14h 36m
Length of Day
13h 38m
Waxing Gibbous, 92% of the Moon is Illuminated
Aug 18
Waxing Gibbous
Aug 20
Full
Aug 28
Last Quarter
Sep 5
New
Sep 12
First Quarter

Hourly Weather History & Observations

Time (EDT) Temp. Dew Point Humidity Pressure Visibility Wind Dir Wind Speed Gust Speed Precip Events Conditions
12:53 AM 64.0 °F 57.0 °F 78% 30.24 in 10.0 mi Calm Calm - N/A   Clear
1:53 AM 63.0 °F 57.0 °F 81% 30.22 in 10.0 mi Calm Calm - N/A   Clear
2:53 AM 64.0 °F 57.9 °F 80% 30.22 in 10.0 mi Calm Calm - N/A   Clear
3:53 AM 64.0 °F 57.9 °F 80% 30.22 in 10.0 mi Calm Calm - N/A   Clear
4:53 AM 64.0 °F 57.0 °F 78% 30.22 in 10.0 mi Calm Calm - N/A   Clear
5:53 AM 64.0 °F 57.9 °F 80% 30.22 in 10.0 mi Calm Calm - 0.00 in Rain Light Rain
6:53 AM 63.0 °F 59.0 °F 87% 30.22 in 10.0 mi North 3.5 mph - 0.02 in Rain Light Rain
7:53 AM 64.0 °F 60.1 °F 87% 30.23 in 10.0 mi Calm Calm - 0.00 in Rain Light Rain
8:53 AM 66.0 °F 61.0 °F 84% 30.23 in 10.0 mi North 3.5 mph - 0.00 in   Mostly Cloudy
9:53 AM 66.9 °F 61.0 °F 81% 30.24 in 10.0 mi North 5.8 mph - 0.00 in   Overcast
10:53 AM 70.0 °F 61.0 °F 73% 30.23 in 10.0 mi NNE 3.5 mph - N/A   Overcast
11:53 AM 72.0 °F 60.1 °F 66% 30.22 in 10.0 mi NE 4.6 mph - N/A   Overcast
12:53 PM 73.0 °F 60.1 °F 64% 30.22 in 10.0 mi NNE 5.8 mph - N/A   Overcast
1:53 PM 73.0 °F 57.9 °F 59% 30.19 in 10.0 mi NNE 6.9 mph - 0.00 in   Overcast
2:53 PM 73.9 °F 57.0 °F 55% 30.16 in 10.0 mi NE 8.1 mph - 0.00 in   Mostly Cloudy
3:53 PM 75.0 °F 57.0 °F 53% 30.14 in 10.0 mi Variable 3.5 mph - 0.00 in   Scattered Clouds
4:53 PM 73.0 °F 55.9 °F 55% 30.13 in 10.0 mi East 3.5 mph - N/A   Scattered Clouds
5:53 PM 73.0 °F 59.0 °F 61% 30.13 in 10.0 mi Calm Calm - 0.00 in   Partly Cloudy
6:53 PM 71.1 °F 62.1 °F 73% 30.13 in 10.0 mi NNW 3.5 mph - N/A   Clear
7:53 PM 69.1 °F 62.1 °F 78% 30.13 in 10.0 mi NNW 3.5 mph - 0.00 in   Partly Cloudy
8:53 PM 68.0 °F 63.0 °F 84% 30.13 in 10.0 mi NNW 4.6 mph - N/A   Partly Cloudy
9:53 PM 66.9 °F 63.0 °F 87% 30.14 in 10.0 mi NW 6.9 mph - N/A   Partly Cloudy
10:53 PM 66.0 °F 63.0 °F 90% 30.14 in 9.0 mi Calm Calm - N/A   Clear
11:53 PM 66.0 °F 63.0 °F 90% 30.13 in 8.0 mi Calm Calm - N/A   Clear